Date String (YYYY-MM-DD hh:mm:ss) UTC,Instrument flags,Ambient pressure (hPa),Sample flow (lpm),Bypass flow (lpm),Sample temperature (°C),Ambient temperature (°C),ASC tube jacket temperature (°C),LED temperature (°C),Box temperature (°C),Sample RH (%),Span deviation,Mass concentration (μg/m³),Mass concentration (μg/m³),Mass concentration (μg/m³)
DateTimeUTC,F1_M11,P_M11,Q1_M11,Q2_M11,T1_M11,T2_M11,T3_M11,T4_M11,T5_M11,U1_M11,ZSPAN_M11,X0_M11,X2_M11,X1_M11
2023-01-01 08:00:00,,0817.4,5.00,0.00,22.2,20.4,00.0,31.2,23.8,16.8,0000.0,0007.36,0004.13,0003.86
2023-01-01 08:01:00,,0817.0,5.00,0.00,22.2,20.4,00.0,31.2,23.7,16.8,0000.0,0007.26,0004.04,0003.80
2023-01-01 08:02:00,,0816.9,4.99,0.00,22.1,20.3,00.0,31.2,23.7,16.9,0000.0,0007.00,0003.97,0003.77
2023-01-01 08:03:00,,0816.9,4.99,0.00,22.1,20.3,00.0,31.2,23.7,16.9,0000.0,0006.92,0003.96,0003.76
2023-01-01 08:04:00,,0816.9,5.00,0.00,22.1,20.3,00.0,31.1,23.6,16.9,0000.0,0006.92,0003.99,0003.77
2023-01-01 08:05:00,,0817.0,5.01,0.00,22.0,20.3,00.0,31.1,23.6,16.9,0000.0,0006.84,0003.99,0003.79
2023-01-01 08:06:00,,0817.0,5.02,0.00,22.0,20.2,00.0,31.1,23.5,17.0,0000.0,0007.02,0004.04,0003.80
2023-01-01 08:07:00,,0817.0,5.00,0.00,22.0,20.2,00.0,31.1,23.5,17.0,0000.0,0006.58,0004.04,0003.80
2023-01-01 08:08:00,,0817.1,5.00,0.00,21.9,20.1,00.0,31.0,23.5,17.0,0000.0,0006.46,0004.02,0003.79
2023-01-01 08:09:00,,0817.2,5.03,0.00,21.9,20.1,00.0,31.0,23.5,17.0,0000.0,0006.44,0004.02,0003.80
2023-01-01 08:10:00,,0817.2,5.00,0.00,21.8,20.0,00.0,31.0,23.4,17.1,0000.0,0006.46,0004.04,0003.81
2023-01-01 08:11:00,,0817.2,4.96,0.00,21.8,20.0,00.0,31.0,23.3,17.1,0000.0,0006.02,0004.05,0003.81
2023-01-01 08:12:00,,0817.1,4.98,0.00,21.8,20.0,00.0,30.9,23.3,17.1,0000.0,0007.01,0004.08,0003.82
2023-01-01 08:13:00,,0817.3,5.02,0.00,21.8,20.5,00.0,30.9,23.5,17.1,0000.0,0007.21,0004.10,0003.84
2023-01-01 08:14:00,,0817.4,5.01,0.00,21.9,21.6,00.0,30.8,23.8,17.0,0000.0,0007.34,0004.11,0003.85
2023-01-01 08:15:00,,0817.4,4.98,0.00,22.0,22.6,00.0,30.8,24.1,16.9,0000.0,0007.42,0004.12,0003.86
2023-01-01 08:16:00,,0817.4,4.98,0.00,22.1,22.4,00.0,30.9,24.1,16.7,0000.0,0007.43,0004.13,0003.88
2023-01-01 08:17:00,,0817.4,5.00,0.00,22.1,21.9,00.0,30.9,24.0,16.6,0000.0,0007.47,0004.16,0003.92
2023-01-01 08:18:00,,0817.4,5.01,0.00,22.1,21.6,00.0,30.9,23.9,16.6,0000.0,0007.61,0004.25,0003.99
2023-01-01 08:19:00,,0817.4,5.02,0.00,22.1,21.3,00.0,31.0,23.8,16.6,0000.0,0007.78,0004.36,0004.07
2023-01-01 08:20:00,,0817.4,5.00,0.00,22.1,21.0,00.0,31.0,23.8,16.6,0000.0,0007.88,0004.44,0004.13
2023-01-01 08:21:00,,0817.3,4.98,0.00,22.1,20.9,00.0,31.0,23.8,16.6,0000.0,0008.01,0004.53,0004.21
2023-01-01 08:22:00,,0817.4,4.99,0.00,22.1,20.8,00.0,31.0,23.7,16.6,0000.0,0008.13,0004.64,0004.31
2023-01-01 08:23:00,,0817.3,5.04,0.00,22.0,20.7,00.0,31.0,23.7,16.6,0000.0,0007.61,0004.73,0004.41
2023-01-01 08:24:00,,0817.3,5.02,0.00,22.0,20.6,00.0,31.0,23.7,16.6,0000.0,0007.74,0004.84,0004.51
2023-01-01 08:25:00,,0817.4,4.98,0.00,22.0,20.6,00.0,31.0,23.6,16.6,0000.0,0007.92,0004.93,0004.60
2023-01-01 08:26:00,,0817.3,5.00,0.00,22.0,20.5,00.0,30.9,23.6,16.7,0000.0,0009.11,0005.04,0004.71
2023-01-01 08:27:00,,0817.3,5.03,0.00,22.0,20.4,00.0,30.9,23.6,16.7,0000.0,0009.46,0005.14,0004.80
2023-01-01 08:28:00,,0817.3,4.99,0.00,21.9,20.4,00.0,30.9,23.6,16.7,0000.0,0009.54,0005.22,0004.88
2023-01-01 08:29:00,,0817.3,5.01,0.00,21.9,20.3,00.0,30.9,23.5,16.7,0000.0,0009.56,0005.25,0004.92
2023-01-01 08:30:00,,0817.2,5.01,0.00,21.9,20.3,00.0,30.9,23.5,16.7,0000.0,0009.60,0005.25,0004.94
2023-01-01 08:31:00,,0817.2,5.01,0.00,21.9,20.3,00.0,30.9,23.4,16.7,0000.0,0009.61,0005.27,0004.97
2023-01-01 08:32:00,,0817.2,5.01,0.00,21.9,20.2,00.0,30.9,23.4,16.7,0000.0,0009.59,0005.27,0005.00
2023-01-01 08:33:00,,0817.2,4.99,0.00,21.8,20.2,00.0,30.9,23.4,16.7,0000.0,0009.55,0005.25,0005.00
2023-01-01 08:34:00,,0817.2,5.01,0.00,21.8,20.2,00.0,30.8,23.4,16.7,0000.0,0009.58,0005.25,0005.00
2023-01-01 08:35:00,,0817.2,4.99,0.00,21.8,20.1,00.0,30.8,23.4,16.7,0000.0,0009.53,0005.23,0004.97
2023-01-01 08:36:00,,0817.3,4.99,0.00,21.8,20.1,00.0,30.8,23.4,16.7,0000.0,0009.38,0005.16,0004.93
2023-01-01 08:37:00,,0817.3,5.01,0.00,21.8,20.1,00.0,30.8,23.4,16.7,0000.0,0008.80,0005.11,0004.90
2023-01-01 08:38:00,,0817.3,5.07,0.00,21.7,20.1,00.0,30.8,23.4,16.7,0000.0,0008.54,0005.09,0004.87
2023-01-01 08:39:00,,0817.3,4.97,0.00,21.7,20.0,00.0,30.8,23.3,16.8,0000.0,0008.49,0005.04,0004.83
2023-01-01 08:40:00,,0817.4,4.98,0.00,21.7,20.0,00.0,30.7,23.3,16.8,0000.3,0008.41,0005.01,0004.80
2023-01-01 08:41:00,,0817.4,4.99,0.00,21.6,19.9,00.0,30.7,23.2,16.8,0000.3,0008.59,0004.99,0004.79
2023-01-01 08:42:00,,0817.5,5.00,0.00,21.7,20.5,00.0,30.6,23.4,16.8,0000.0,0008.80,0004.99,0004.77
2023-01-01 08:43:00,,0817.6,5.02,0.00,21.8,21.7,00.0,30.6,23.7,16.7,0000.0,0008.82,0004.99,0004.76
2023-01-01 08:44:00,,0817.6,5.00,0.00,21.9,22.5,00.0,30.6,23.9,16.6,0000.0,0008.80,0004.98,0004.76
2023-01-01 08:45:00,,0817.6,4.98,0.00,22.0,22.0,00.0,30.7,23.9,16.5,0000.0,0008.74,0004.98,0004.76
2023-01-01 08:46:00,,0817.6,4.98,0.00,22.0,21.5,00.0,30.7,23.7,16.5,0000.3,0008.73,0005.00,0004.79
2023-01-01 08:47:00,,0817.5,5.00,0.00,21.9,21.1,00.0,30.8,23.6,16.5,0001.7,0008.79,0005.04,0004.83
2023-01-01 08:48:00,,0817.5,5.04,0.00,21.9,20.7,00.0,30.8,23.5,16.6,0001.8,0008.30,0005.11,0004.86
2023-01-01 08:49:00,,0817.5,4.97,0.00,21.9,20.5,00.0,30.8,23.4,16.6,0001.9,0008.17,0005.14,0004.89
2023-01-01 08:50:00,,0817.6,4.98,0.00,21.8,20.3,00.0,30.8,23.3,16.6,0002.4,0008.22,0005.19,0004.95
2023-01-01 08:51:00,,0817.6,5.09,0.00,21.8,20.1,00.0,30.8,23.3,16.6,0002.2,0008.30,0005.24,0004.99
2023-01-01 08:52:00,,0817.6,4.99,0.00,21.7,19.8,00.0,30.7,23.2,16.6,0000.0,0008.12,0005.30,0005.05
2023-01-01 08:53:00,,0817.7,5.01,0.00,21.7,19.7,00.0,30.7,23.1,16.6,0000.0,0007.97,0005.34,0005.08
2023-01-01 08:54:00,,0817.7,5.05,0.00,21.6,19.5,00.0,30.7,23.1,16.7,0000.0,0008.01,0005.39,0005.12
2023-01-01 08:55:00,,0817.7,5.00,0.00,21.6,19.4,00.0,30.7,23.0,16.8,0000.0,0008.08,0005.42,0005.15
2023-01-01 08:56:00,,0817.7,5.01,0.00,21.5,19.4,00.0,30.6,22.9,16.8,0000.0,0008.75,0005.46,0005.17
2023-01-01 08:57:00,,0817.8,4.97,0.00,21.4,19.3,00.0,30.6,22.8,16.8,0000.0,0008.76,0005.46,0005.17
2023-01-01 08:58:00,,0817.8,5.00,0.00,21.4,19.3,00.0,30.6,22.8,16.7,0000.0,0008.78,0005.46,0005.16
2023-01-01 08:59:00,,0817.9,5.07,0.00,21.3,19.4,00.0,30.5,22.8,16.8,0000.0,0008.70,0005.41,0005.14
